• In United Kingdom
  • List of Countries
  • For 7 days
  • Water Temperature
  • Satellite Maps
  • Weather Map
  • Weather Widgets
  • user-avatar
    Login

    Hourly Weather Perth

    Today, 24 July, Monday

    Time Temperature Precipitation Wind Pressure Humidity
    00:00 +13°C° 0 mm 3 mps 762 mmHg 82%
    01:00 +14°C° 0 mm 2 mps 762 mmHg 81%
    02:00 +13°C° 0 mm 2 mps 762 mmHg 81%
    03:00 +13°C° 0 mm 2 mps 762 mmHg 81%
    04:00 +13°C° 0 mm 2 mps 762 mmHg 81%
    05:00 +13°C° 0 mm 2 mps 762 mmHg 81%
    06:00 +13°C° 0.1 mm 2 mps 762 mmHg 81%
    07:00 +13°C° 0.1 mm 2 mps 762 mmHg 81%
    08:00 +13°C° 0.1 mm 2 mps 763 mmHg 82%
    09:00 +14°C° 0.1 mm 3 mps 763 mmHg 77%
    10:00 +15°C° 0.1 mm 4 mps 763 mmHg 73%
    11:00 +17°C° 0.1 mm 4 mps 763 mmHg 69%
    12:00 +16°C° 0.2 mm 5 mps 763 mmHg 67%
    13:00 +17°C° 0.2 mm 5 mps 762 mmHg 65%
    14:00 +17°C° 0.2 mm 5 mps 762 mmHg 62%
    15:00 +16°C° 0.1 mm 5 mps 762 mmHg 65%
    16:00 +16°C° 0.1 mm 5 mps 762 mmHg 69%
    17:00 +15°C° 0.1 mm 4 mps 762 mmHg 72%
    18:00 +14°C° 0 mm 4 mps 763 mmHg 75%
    19:00 +13°C° 0 mm 3 mps 763 mmHg 77%
    20:00 +12°C° 0 mm 3 mps 763 mmHg 80%
    21:00 +12°C° 0.1 mm 3 mps 763 mmHg 81%
    22:00 +13°C° 0.1 mm 2 mps 764 mmHg 82%
    23:00 +13°C° 0.1 mm 2 mps 764 mmHg 83%

    Tomorrow, 25 July, Tuesday

    Time Temperature Precipitation Wind Pressure Humidity
    00:00 +13°C° 0.1 mm 2 mps 764 mmHg 82%
    01:00 +13°C° 0.1 mm 2 mps 764 mmHg 82%
    02:00 +14°C° 0.1 mm 2 mps 763 mmHg 82%
    03:00 +13°C° 0.1 mm 2 mps 763 mmHg 83%
    04:00 +13°C° 0.1 mm 2 mps 763 mmHg 85%
    05:00 +13°C° 0.1 mm 2 mps 763 mmHg 86%
    06:00 +12°C° 0.1 mm 3 mps 763 mmHg 86%
    07:00 +12°C° 0.1 mm 3 mps 764 mmHg 86%
    08:00 +12°C° 0.1 mm 3 mps 764 mmHg 86%
    09:00 +13°C° 0.1 mm 3 mps 764 mmHg 80%
    10:00 +15°C° 0.1 mm 4 mps 764 mmHg 74%
    11:00 +18°C° 0.1 mm 4 mps 764 mmHg 67%
    12:00 +18°C° 0.1 mm 4 mps 763 mmHg 64%
    13:00 +19°C° 0.1 mm 4 mps 763 mmHg 60%
    14:00 +20°C° 0.1 mm 5 mps 762 mmHg 57%
    15:00 +19°C° 0.1 mm 4 mps 762 mmHg 61%
    16:00 +18°C° 0.1 mm 4 mps 762 mmHg 65%
    17:00 +18°C° 0.1 mm 4 mps 762 mmHg 69%
    18:00 +17°C° 0.1 mm 4 mps 762 mmHg 73%
    19:00 +15°C° 0.1 mm 4 mps 762 mmHg 77%
    20:00 +14°C° 0.1 mm 4 mps 762 mmHg 81%
    21:00 +14°C° 0.1 mm 4 mps 762 mmHg 83%
    22:00 +14°C° 0.1 mm 4 mps 762 mmHg 85%
    23:00 +13°C° 0.1 mm 4 mps 762 mmHg 87%

    Day after tomorrow, 26 July, Wednesday

    Time Temperature Precipitation Wind Pressure Humidity
    00:00 +13°C° 0.2 mm 4 mps 762 mmHg 88%
    01:00 +13°C° 0.2 mm 5 mps 762 mmHg 88%
    02:00 +13°C° 0.2 mm 5 mps 761 mmHg 89%
    03:00 +13°C° 0.2 mm 5 mps 761 mmHg 89%
    04:00 +14°C° 0.2 mm 5 mps 761 mmHg 89%
    05:00 +14°C° 0.2 mm 5 mps 761 mmHg 89%
    06:00 +14°C° 0.4 mm 5 mps 761 mmHg 89%
    07:00 +14°C° 0.4 mm 5 mps 761 mmHg 89%
    08:00 +14°C° 0.4 mm 5 mps 762 mmHg 89%
    09:00 +15°C° 0.6 mm 5 mps 762 mmHg 86%
    10:00 +16°C° 0.6 mm 5 mps 762 mmHg 83%
    11:00 +19°C° 0.6 mm 6 mps 762 mmHg 81%
    12:00 +19°C° 0.5 mm 6 mps 761 mmHg 79%
    13:00 +19°C° 0.5 mm 6 mps 761 mmHg 77%
    14:00 +20°C° 0.5 mm 6 mps 761 mmHg 75%
    15:00 +19°C° 0.1 mm 5 mps 761 mmHg 76%
    16:00 +19°C° 0.1 mm 5 mps 761 mmHg 77%
    17:00 +18°C° 0.1 mm 4 mps 761 mmHg 78%
    18:00 +17°C° 0 mm 4 mps 761 mmHg 80%
    19:00 +16°C° 0 mm 3 mps 762 mmHg 83%
    20:00 +14°C° 0 mm 3 mps 762 mmHg 85%
    21:00 +15°C° 0 mm 2 mps 762 mmHg 85%
    22:00 +15°C° 0 mm 2 mps 762 mmHg 85%
    23:00 +14°C° 0 mm 2 mps 762 mmHg 85%

    27 July, Thursday

    Time Temperature Precipitation Wind Pressure Humidity
    00:00 +14°C° 0 mm 2 mps 762 mmHg 86%
    01:00 +14°C° 0 mm 2 mps 762 mmHg 87%
    02:00 +14°C° 0 mm 2 mps 762 mmHg 88%
    03:00 +14°C° 0 mm 2 mps 761 mmHg 89%
    04:00 +12°C° 0 mm 3 mps 761 mmHg 90%
    05:00 +12°C° 0 mm 4 mps 761 mmHg 92%
    06:00 +13°C° 0 mm 4 mps 761 mmHg 91%
    07:00 +13°C° 0 mm 4 mps 761 mmHg 90%
    08:00 +13°C° 0 mm 5 mps 761 mmHg 90%
    09:00 +15°C° 0.1 mm 6 mps 760 mmHg 84%
    10:00 +17°C° 0.1 mm 6 mps 760 mmHg 78%
    11:00 +20°C° 0.1 mm 7 mps 760 mmHg 72%
    12:00 +21°C° 0.4 mm 8 mps 758 mmHg 72%
    13:00 +21°C° 0.4 mm 8 mps 757 mmHg 71%
    14:00 +21°C° 0.4 mm 8 mps 756 mmHg 71%
    15:00 +21°C° 0.4 mm 8 mps 756 mmHg 72%
    16:00 +20°C° 0.4 mm 8 mps 756 mmHg 73%
    17:00 +20°C° 0.4 mm 8 mps 756 mmHg 74%
    18:00 +18°C° 0.2 mm 8 mps 756 mmHg 77%
    19:00 +18°C° 0.2 mm 8 mps 756 mmHg 79%
    20:00 +17°C° 0.2 mm 8 mps 756 mmHg 82%
    21:00 +17°C° 0.2 mm 8 mps 756 mmHg 82%
    22:00 +17°C° 0.2 mm 9 mps 755 mmHg 82%
    23:00 +17°C° 0.2 mm 9 mps 755 mmHg 82%

    28 July, Friday

    Time Temperature Precipitation Wind Pressure Humidity
    00:00 +17°C° 0.7 mm 9 mps 755 mmHg 82%
    01:00 +17°C° 0.7 mm 9 mps 754 mmHg 83%
    02:00 +16°C° 0.7 mm 10 mps 754 mmHg 83%
    03:00 +16°C° 1.5 mm 10 mps 754 mmHg 83%
    04:00 +16°C° 1.5 mm 10 mps 753 mmHg 83%
    05:00 +16°C° 1.5 mm 10 mps 753 mmHg 84%
    06:00 +16°C° 0.3 mm 10 mps 754 mmHg 81%
    07:00 +14°C° 0.3 mm 10 mps 754 mmHg 78%
    08:00 +14°C° 0.3 mm 10 mps 755 mmHg 75%
    09:00 +14°C° 0.3 mm 10 mps 756 mmHg 72%
    10:00 +14°C° 0.3 mm 11 mps 756 mmHg 68%
    11:00 +14°C° 0.3 mm 11 mps 756 mmHg 64%
    12:00 +14°C° 0.4 mm 11 mps 757 mmHg 65%
    13:00 +13°C° 0.4 mm 11 mps 757 mmHg 66%
    14:00 +12°C° 0.4 mm 11 mps 757 mmHg 68%
    15:00 +12°C° 0.4 mm 10 mps 757 mmHg 69%
    16:00 +11°C° 0.4 mm 10 mps 758 mmHg 70%
    17:00 +11°C° 0.4 mm 9 mps 759 mmHg 71%
    18:00 +11°C° 0.5 mm 9 mps 760 mmHg 73%
    19:00 +10°C° 0.5 mm 8 mps 761 mmHg 74%
    20:00 +10°C° 0.5 mm 8 mps 761 mmHg 75%
    21:00 +9°C° 0.6 mm 8 mps 762 mmHg 76%
    22:00 +9°C° 0.6 mm 7 mps 763 mmHg 77%
    23:00 +9°C° 0.6 mm 7 mps 763 mmHg 77%

    29 July, Saturday

    Time Temperature Precipitation Wind Pressure Humidity
    00:00 +9°C° 0.1 mm 6 mps 763 mmHg 78%
    01:00 +9°C° 0.1 mm 6 mps 764 mmHg 78%
    02:00 +8°C° 0.1 mm 5 mps 764 mmHg 79%
    03:00 +8°C° 0.1 mm 5 mps 765 mmHg 79%
    04:00 +9°C° 0.1 mm 5 mps 765 mmHg 79%
    05:00 +10°C° 0.1 mm 4 mps 765 mmHg 79%
    06:00 +10°C° 0 mm 4 mps 766 mmHg 79%
    07:00 +10°C° 0 mm 4 mps 767 mmHg 78%
    08:00 +11°C° 0 mm 3 mps 767 mmHg 78%
    09:00 +12°C° 0.1 mm 3 mps 767 mmHg 74%
    10:00 +13°C° 0.1 mm 3 mps 767 mmHg 69%
    11:00 +14°C° 0.1 mm 4 mps 767 mmHg 65%
    12:00 +16°C° 0.1 mm 3 mps 767 mmHg 63%
    13:00 +16°C° 0.1 mm 3 mps 767 mmHg 62%
    14:00 +16°C° 0.1 mm 3 mps 766 mmHg 60%
    15:00 +16°C° 0 mm 3 mps 766 mmHg 63%
    16:00 +16°C° 0 mm 3 mps 766 mmHg 66%
    17:00 +14°C° 0 mm 3 mps 767 mmHg 70%
    18:00 +14°C° 0 mm 2 mps 767 mmHg 73%
    19:00 +13°C° 0 mm 2 mps 767 mmHg 77%
    20:00 +12°C° 0 mm 2 mps 768 mmHg 81%
    21:00 +12°C° 0 mm 2 mps 767 mmHg 81%
    22:00 +12°C° 0 mm 2 mps 767 mmHg 82%
    23:00 +12°C° 0 mm 2 mps 767 mmHg 82%
    Show more